Find Starlink 32124

NORAD ID: 60298 Int'l Des: 2024-132 Owner: SPXS Country: US Constellation: starlink operational
LEOCIRCULAR

Live Position

Loading 3D Globe...

About Starlink 32124

Description loading...

Upcoming Passes

Passes for default location (London). Set your location on the main map for personalized predictions.

Altitude History

Loading altitude history...

Two-Line Element Set

1 60298U 24132W 26130.37308657 -.00000772 00000-0 -13109-4 0 9994
2 60298 53.1611 125.9717 0001096 92.7008 267.4118 15.31701054101006
Epoch: May 10, 2026 • Age: 14 hours

Current Status

Altitude 472.4 km
Velocity 7.63 km/s
Sub-Earth Point 32.28°N, 65.93°W
Launch Date Jul 28, 2024
Age 1.7 years
Type internet

Technical Details

Classification Payload
Mass 730.00 kg
Dry Mass 700.00 kg
Total Mass 730.00 kg
Length 0.30 m
Diameter 4.10 m
Span 29.00 m
Shape Box + pan
Manufacturer SPXS
Bus Type Starlink V2M
Phase Status In Orbit
Owner/State SPXS/US

Most Searched